Home > Weather > Pokhara > Past weeks

Flag for Nepal Weather for the Past 2 Weeks in Pokhara, Nepal

Now
63 °F

Passing clouds.


Feels Like: 63 °F
Forecast: 48 / 70 °F
Wind: 6 mph from Southwest

Location: Kathmandu Airport

Current Time: Feb 13, 2016 at 7:05:32 PM

Latest Report: Feb 13, 2016 at 6:35 PM


Visibility: N/A

Pressure: 30.04 "Hg (27.19 "Hg at 847m altitude)

Humidity: 39%

Dew point: 37 °F

Location of PokharaLocation

Historic Weather in Pokhara — Graph

°F

Pokhara Temperature Yesterday

Maximum temperature yesterday: 70 °F (at 2:35 PM)
Minimum temperature yesterday: 39 °F (at 7:05 AM)
Average temperature yesterday: 54 °F

High & Low Weather Summary for the Past Weeks

 TemperatureHumidityPressure
High72 °F (Feb 7, 2:05 PM)100% (Jan 30, 8:05 AM)30.24 "Hg (Jan 30, 8:05 AM)
Low37 °F (Feb 3, 7:05 AM)14% (Feb 13, 2:35 PM)29.92 "Hg (Feb 11, 3:05 PM)
Average53 °F72%30.06 "Hg
* Reported Jan 29 6:05 PM — Feb 13 6:05 PM, Pokhara, Weather by CustomWeather, © 2016

Note: Actual official high and low records may vary slightly from our data, if they occured in-between our weather recording intervals... More about our weather records

Advertising

Pokhara Weather History for the Previous 24 Hours

 ConditionsComfort  
Time TempWeatherWind HumidityBarometerVisibility
6:05 PM
Sat, Feb 13
63 °FPassing clouds.6 mph37%30.04 "HgN/A
5:35 PM64 °FScattered clouds.5 mph30%30.04 "HgN/A
5:05 PM68 °FScattered clouds.9 mph30%30.01 "HgN/A
4:35 PM70 °FScattered clouds.7 mph25%30.01 "HgN/A
4:05 PM70 °FPassing clouds.9 mph17%30.01 "HgN/A
3:35 PM72 °FPassing clouds.9 mph17%30.01 "HgN/A
3:05 PM72 °FScattered clouds.8 mph17%30.04 "HgN/A
2:35 PM72 °FScattered clouds.9 mph14%30.04 "HgN/A
2:05 PM72 °FScattered clouds.7 mph22%30.04 "HgN/A
1:35 PM72 °FScattered clouds.6 mph22%30.04 "HgN/A
1:05 PM70 °FPassing clouds.6 mph27%30.07 "Hg4 mi
12:35 PM68 °FPassing clouds.3 mph30%30.07 "Hg4 mi
12:05 PM68 °FPartly sunny.3 mph30%30.09 "Hg4 mi
11:35 AM64 °FScattered clouds.3 mph40%30.12 "Hg3 mi
11:05 AM63 °FScattered clouds.2 mph49%30.12 "Hg2 mi
10:35 AM59 °FHaze.2 mph55%30.12 "Hg2 mi
10:05 AM57 °FHaze.2 mph55%30.15 "Hg1 mi
9:35 AM54 °FPartly sunny.2 mph67%30.12 "Hg1 mi
9:05 AM50 °FFog.2 mph71%30.12 "Hg1 mi
8:05 AM43 °FFog.2 mph87%30.09 "Hg1 mi
7:05 AM41 °FFog.3 mph87%30.09 "Hg1 mi
6:35 AM41 °FFog.3 mph87%30.07 "Hg1 mi
6:05 AM39 °FFog.2 mph93%30.07 "Hg2 mi
5:35 AM41 °FFog.No wind87%30.04 "Hg2 mi
4:35 AM41 °FFog.N/A93%30.04 "Hg2 mi
3:35 AM43 °FFog.3 mph87%30.04 "Hg2 mi
2:35 AM43 °FFog.2 mph87%30.04 "Hg3 mi
1:35 AM45 °FPassing clouds.5 mph87%30.04 "Hg4 mi
12:35 AM45 °FPassing clouds.3 mph87%30.04 "Hg4 mi
12:05 AM46 °FPassing clouds.5 mph82%30.04 "Hg4 mi
11:35 PM
Fri, Feb 12
46 °FPassing clouds.3 mph82%30.04 "Hg4 mi
11:05 PM48 °FPassing clouds.2 mph76%30.04 "Hg4 mi
10:35 PM50 °FPassing clouds.3 mph71%30.04 "Hg4 mi
10:05 PM48 °FPassing clouds.2 mph76%30.04 "Hg4 mi
9:35 PM50 °FPassing clouds.5 mph71%30.04 "Hg4 mi
9:05 PM52 °FPassing clouds.6 mph67%30.04 "Hg4 mi
8:35 PM54 °FPassing clouds.3 mph67%30.01 "Hg4 mi
8:05 PM55 °FPassing clouds.5 mph72%30.01 "Hg4 mi
7:35 PM57 °FPassing clouds.5 mph59%30.01 "Hg4 mi
7:05 PM57 °FPassing clouds.3 mph59%29.98 "Hg4 mi
Weather by CustomWeather, © 2016

See weather overviewHow to use our weather pages